Flag for Romania Weather past 2 weeks in Oradea, Romania

Now
61 °F

Light rain. Mostly cloudy.


Feels Like: 61 °F
Forecast: 56 / 74 °F
Wind: 3 mph from East

Location: Oradea Airport

Current Time: Jul 30, 2015 at 7:07:24 AM

Latest Report: Jul 30, 2015 at 6:30 AM


Visibility: N/A

Pressure: 29.89 "Hg

Humidity: 94%

Dew point: 59 °F

Location of OradeaLocation

Historic Weather in Oradea — Graph

°F

Oradea temperature yesterday

Maximum temperature yesterday: 81 °F (at 3:30 PM)
Minimum temperature yesterday: 59 °F (at 6:00 AM)
Average temperature yesterday: 72 °F

Past Weeks' High & Low Weather Summary

 TemperatureHumidityPressure
High99 °F (Jul 23, 3:00 PM)100% (Jul 28, 6:00 AM)30.12 "Hg (Jul 28, 6:00 AM)
Low59 °F (Jul 27, 6:00 AM)23% (Jul 23, 7:00 PM)29.71 "Hg (Jul 25, 7:00 PM)
Average79 °F54%29.93 "Hg
* Reported Jul 15 6:00 AM — Jul 30 6:00 AM, Oradea, Weather by CustomWeather, © 2015

Note: Actual official high and low records may vary slightly from our data, if they occured in-between our weather recording intervals... More about our weather records

Advertising

Oradea weather history for previous 24 hours

 ConditionsComfort  
Time TempWeatherWind HumidityBarometerVisibility
6:00 AM
Thu, Jul 30
61 °FRain. Overcast.3 mph94%29.89 "Hg5 mi
5:30 AM61 °FRain. Partly cloudy.3 mph94%29.92 "HgN/A
5:00 AM61 °FHeavy rain. Mostly cloudy.5 mph94%29.89 "Hg4 mi
4:00 AM63 °FHeavy rain. Passing clouds.2 mph88%29.86 "Hg3 mi
3:00 AM64 °FLight rain. Mostly cloudy.1 mph73%29.86 "HgN/A
2:00 AM64 °FPassing clouds.5 mph68%29.83 "HgN/A
1:00 AM64 °FMild.8 mph78%29.83 "HgN/A
12:00 AM66 °FPassing clouds.9 mph78%29.86 "HgN/A
11:30 PM
Wed, Jul 29
68 °FMild.7 mph64%29.83 "HgN/A
11:00 PM70 °FMild.8 mph60%29.83 "HgN/A
10:30 PM70 °FMild.7 mph57%29.83 "HgN/A
10:00 PM70 °FMild.6 mph57%29.83 "HgN/A
9:30 PM70 °FMild.6 mph57%29.83 "HgN/A
9:00 PM72 °FPassing clouds.9 mph57%29.83 "HgN/A
8:30 PM73 °FSunny.12 mph53%29.83 "Hg10 mi
8:00 PM75 °FSunny.13 mph50%29.83 "Hg10 mi
7:30 PM77 °FSunny.12 mph44%29.83 "Hg10 mi
7:00 PM77 °FSunny.13 mph44%29.83 "Hg10 mi
6:30 PM77 °FSunny.13 mph44%29.83 "Hg10 mi
6:00 PM79 °FPassing clouds.10 mph45%29.83 "HgN/A
5:30 PM79 °FSunny.12 mph45%29.83 "Hg10 mi
5:00 PM79 °FSunny.13 mph42%29.83 "Hg10 mi
4:30 PM81 °FSunny.14 mph42%29.83 "Hg10 mi
4:00 PM81 °FPassing clouds.13 mph42%29.83 "HgN/A
3:30 PM81 °FPassing clouds.9 mph42%29.83 "HgN/A
3:00 PM79 °FPassing clouds.12 mph45%29.83 "HgN/A
2:30 PM79 °FSunny.13 mph48%29.83 "Hg10 mi
2:00 PM79 °FSunny.13 mph48%29.83 "Hg10 mi
1:30 PM79 °FSunny.13 mph48%29.83 "Hg10 mi
1:00 PM79 °FWarm.14 mph48%29.83 "HgN/A
12:30 PM79 °FPassing clouds.10 mph48%29.83 "HgN/A
12:00 PM79 °FPassing clouds.12 mph45%29.83 "HgN/A
11:30 AM79 °FSunny.7 mph45%29.83 "Hg10 mi
11:00 AM79 °FSunny.7 mph45%29.83 "Hg10 mi
10:30 AM77 °FSunny.1 mph47%29.83 "Hg10 mi
10:00 AM77 °FPassing clouds.2 mph47%29.83 "HgN/A
9:30 AM75 °FPassing clouds.2 mph50%29.83 "HgN/A
9:00 AM73 °FPassing clouds.3 mph53%29.83 "HgN/A
8:30 AM68 °FSunny.5 mph60%29.83 "Hg10 mi
8:00 AM64 °FSunny.6 mph68%29.83 "Hg10 mi
7:30 AM63 °FSunny.7 mph73%29.80 "Hg10 mi
7:00 AM61 °FClear.7 mph77%29.83 "Hg10 mi
Weather by CustomWeather, © 2015

See weather overviewHow to use our weather pages